Location: Sobotiste
(48.7170°N, 17.4000°E)
Time: 18:18:21
(UTC+02:00)

SEEDS - Pass Details

Date: 19 March 2026
Orbit: 471 x 477 km, 97.8° (Epoch: 18 April)

Event Time Altitude Azimuth Distance (km) Brightness Sun altitude
Rises 05:05:09 0° 17° (NNE) 2,550 ? -9.1°
Reaches altitude 10° 05:07:15 10° 21° (NNE) 1,664 ? -8.8°
Maximum altitude 05:10:47 57° 101° (E) 572 ? -8.2°
Drops below altitude 10° 05:14:15 10° 181° (S) 1,643 ? -7.7°
Sets 05:16:19 0° 185° (S) 2,514 ? -7.3°
